Location: Most
(50.5133°N, 13.6207°E)
Time: 20:50:30
(UTC+02:00)

ISS - Pass Details

Date: 18 May 2025
Orbit: 415 x 416 km, 51.6° (Epoch: 16 June)

Event Time Altitude Azimuth Distance (km) Brightness Sun altitude
Rises 21:25:24 0° 273° (W) 2,361 1.0 -5.2°
Reaches altitude 10° 21:27:30 10° 275° (W) 1,496 0.0 -5.4°
Maximum altitude 21:30:51 70° 360° (N) 447 -3.5 -5.8°
Drops below altitude 10° 21:34:12 10° 85° (E) 1,494 -1.4 -6.2°
Enters shadow 21:36:01 - 88° (E) 2,242 -0.5 -6.4°
